Tracking 27401 objects as of 4-Jun-2023
HD Live streaming from Space Station
objects crossing your sky now

FENGYUN 1C DEB

Track FENGYUN 1C DEB now!
10-day predictions


NORAD ID: 37924
Int'l Code: 1999-025ENZ
Perigee: 790.7 km
Apogee: 865.6 km
Inclination: 98.8 °
Period: 101.3 minutes
Semi major axis: 7199 km
RCS: 0.0011 m2 (small)
Launch date: May 10, 1999
Source: People's Republic of China (PRC)
Launch site: Taiyaun Space Center, China (TSC)

Note: This is SATELLITE DEBRIS
Your satellite tracking list
Your tracking list is empty




NASA's NSSDC Master Catalog

Two Line Element Set (TLE):
1 37924U 99025ENZ 23152.97211190  .00003706  00000-0  16965-2 0  9998
2 37924  98.8083 220.0019 0052028 200.9039 159.0010 14.21294712742021
Source of the keplerian elements: AFSPC